#timestamp,LO_Frequency,Hit,StdDev 
1578909615.4,286046996.7,N
1578909635.3,286046998.5,N
1578909655.1,286046999.4,N
1578909675.8,286046999.6,N
1578909695.7,286046996.6,N
1578909715.5,286046996.7,N
1578909735.4,286046997.2,N
1578909755.2,286046999.3,N
1578909775.0,286046998.4,N
1578909775.9,286046998.4,N
1578909795.8,286046997.4,N
1578909815.6,286046997.9,N
1578909835.5,286046999.2,N
1578909855.3,286047000.6,N
1578909875.1,286047000.4,N
1578909895.9,286047000.5,N
1578909915.7,286047000.4,N
1578909935.6,286046998.3,N
1578909955.4,286046998.9,N
1578909975.2,286046998.4,N
1578909995.1,286046999.4,N
1578909996.0,286046999.4,N
1578910015.8,286046997.2,N
1578910035.6,286046998.3,N
1578910055.5,286047000.3,N
1578910075.3,286046999.9,N
1578910095.2,286047000.5,N
1578910115.9,286047002.8,N
1578910135.7,286047000.3,N
1578910155.6,286046996.7,N
1578910175.4,286046997.9,N
1578910195.4,286046996.5,N
1578910215.2,286046997.8,N
1578910235.1,286046999.2,N
1578910236.0,286046999.2,N
1578910255.8,286046996.6,N
1578910275.7,286046998.3,N
1578910295.5,286046998.5,N
1578910315.3,286046999.9,N
1578910335.2,286047000.4,N
1578910355.9,286046998.7,N
1578910375.7,286046999.3,N
1578910395.6,286046997.3,N
1578910415.4,286046999.4,N
1578910435.3,286046997.8,N
1578910455.1,286046997.2,N
1578910456.0,286046997.2,N
1578910475.8,286046997.2,N
1578910495.7,286046997.4,N
1578910515.5,286046997.9,N
1578910535.3,286046996.6,N
1578910555.2,286047001.0,N
1578910575.0,286046998.4,N
1578910575.9,286046998.4,N
1578910595.8,286046996.8,N
1578910615.6,286046999.0,N
1578910635.4,286046995.3,Y
1578910655.3,286046998.4,P
1578910675.1,286046999.4,P
1578910695.8,286046996.7,P
1578910715.7,286046997.8,N
1578910735.5,286047000.3,N
1578910755.4,286046998.8,N
1578910775.2,286047000.3,N
1578910795.0,286047000.6,N
1578910795.9,286047000.6,N
1578910815.8,286046998.1,N
1578910835.6,286047001.2,N
1578910855.4,286047002.7,N
1578910875.3,286047000.7,N
1578910895.1,286047001.2,N
1578910915.9,286046997.0,N
1578910935.7,286046997.1,N
1578910955.5,286046997.6,N
1578910975.4,286046998.0,N
1578910995.2,286046997.3,N
1578911015.0,286046997.3,N
1578911016.0,286046997.3,N
1578911035.8,286046996.9,N
1578911055.6,286046997.7,N
1578911075.5,286046996.8,N
1578911095.3,286046997.8,N
1578911115.1,286046998.0,N
1578911135.9,286046998.0,N
1578911155.7,286046995.1,Y
1578911175.6,286046996.7,P
1578911195.4,286046997.3,N
1578911215.2,286046997.3,P
1578911235.1,286046994.9,Y
1578911236.0,286046994.9,P
1578911255.8,286046998.5,N
1578911275.7,286046996.6,N
1578911295.5,286046999.4,N
1578911315.3,286046999.2,N
1578911335.2,286046995.5,N
1578911355.9,286046995.5,N
1578911375.7,286046993.3,Y
1578911395.6,286046994.9,P
1578911415.4,286046993.3,P
1578911435.3,286046994.8,P
1578911455.1,286046992.6,Y
1578911456.0,286046992.6,P
1578911475.8,286046998.0,N
1578911495.7,286046993.6,N
1578911515.5,286046991.7,Y
1578911535.4,286046996.7,P
1578911555.2,286046997.2,N
1578911575.0,286046997.5,N
1578911595.9,286046996.6,Y
1578911615.7,286047004.3,P
1578911635.6,286047004.7,N
1578911655.4,286047008.6,N
1578911675.3,286047010.7,N
1578911695.1,286047008.7,N
1578911696.0,286047008.7,N
1578911715.8,286047006.9,N
1578911735.7,286047005.7,N
1578911755.5,286047003.1,N
1578911775.3,286047004.3,N
1578911795.2,286047003.0,N
1578911815.0,286047003.1,N
1578911815.9,286047003.1,N
1578911835.8,286047001.8,N
1578911855.6,286047000.1,N
1578911875.4,286047002.6,N
1578911895.3,286047004.2,N
1578911915.1,286047003.9,N
1578911935.8,286047003.0,N
1578911955.7,286047003.0,N
1578911975.5,286047004.1,N
1578911995.4,286047001.3,N
1578912015.2,286047003.5,N
1578912035.0,286047004.2,N
1578912035.9,286047004.2,N
1578912055.8,286047004.4,N
1578912075.6,286047002.8,N
1578912095.5,286046998.5,N
1578912115.3,286046998.5,N
1578912135.1,286047000.5,N
1578912155.9,286046998.3,N
1578912175.7,286046998.9,N
1578912195.6,286047001.0,N
1578912215.4,286046998.1,N
1578912235.2,286047000.4,N
1578912255.1,286047000.5,N
1578912256.0,286047000.5,N
1578912275.8,286046999.9,N
1578912295.7,286046999.9,N
1578912315.5,286047002.7,N
1578912335.3,286047001.9,N
1578912355.2,286046999.9,N
1578912375.0,286047001.7,N
1578912375.9,286047001.7,N
1578912395.7,286047003.0,N
1578912415.6,286047003.3,N
1578912435.4,286047005.7,N
1578912455.3,286047002.9,N
1578912475.1,286047007.6,Y
1578912495.8,286047003.4,P
1578912515.7,286047004.0,P
1578912535.5,286047004.2,P
1578912555.4,286047002.0,N
1578912575.2,286047002.3,N
1578912595.0,286046999.2,N
1578912595.9,286046999.2,N
1578912615.8,286046995.5,N
1578912635.6,286046995.9,N
1578912655.4,286046995.2,N
1578912675.3,286046996.2,N
1578912695.1,286046995.5,N
1578912715.9,286046993.6,N
1578912735.7,286046993.6,N
1578912755.5,286046995.9,N
1578912775.4,286046996.1,N
1578912795.2,286046997.5,N
1578912815.0,286046999.3,N
1578912816.0,286046999.3,N
1578912835.8,286046998.7,N
1578912855.6,286046997.0,N
1578912875.5,286046998.7,N
1578912895.3,286047000.8,N
1578912915.1,286047002.3,N
1578912935.9,286047000.5,N
1578912955.7,286047001.0,N
1578912975.6,286047000.8,N
1578912995.4,286047000.5,N
1578913015.2,286047000.7,N
1578913035.1,286046998.1,N
1578913036.0,286046998.1,N
1578913055.8,286047000.8,N
1578913075.7,286046998.5,N
1578913095.5,286046998.5,N
1578913115.3,286046998.1,N
1578913135.2,286046998.6,N
1578913155.0,286047000.4,N
1578913155.9,286047000.4,N
1578913175.8,286046999.9,N
1578913195.6,286047002.3,N
